Fort Rucker / Ozark, AL

11:47 PM CDT on March 29, 2017 (GMT -0500)
Fort Rucker / Ozark

Weather History for KLOR - July, 2013

Change the Weather History Date:

Saturday, July 6, 2013

  Actual Average (KOZR) Record (KOZR)
Temperature  
Mean Temperature 76 °F -  
Max Temperature 81 °F 87 °F 100 °F (1998)
Min Temperature 71 °F 69 °F 66 °F (2015)
Cooling Degree Days 11    
Growing Degree Days 26 (Base 50)    
Moisture  
Dew Point 73 °F    
Average Humidity 93    
Maximum Humidity 100    
Minimum Humidity 74    
Precipitation  
Precipitation 0.38 in - - ()
Sea Level Pressure  
Sea Level Pressure 30.06 in    
Wind  
Wind Speed 3 mph (SSE)    
Max Wind Speed 12 mph    
Max Gust Speed 16 mph    
Visibility 9 miles    
Events Rain , Thunderstorm    
Averages and records for this station are not official NWS values.
T = Trace of Precipitation, MM = Missing Value Source: NWS Daily Summary

Daily Weather History Graph

Daily Weather History Graph

Search for Another Location

Airport or City:

Trip Planner

Search our weather history database for the weather conditions in past years. The results will help you decide how hot, cold, wet, or windy it might be!

Date:

Astronomy

Jul. 06, 2013 Rise Set
Actual Time 5:44 AM CDT 7:50 PM CDT
Civil Twilight 5:16 AM CDT 8:18 PM CDT
Nautical Twilight 4:42 AM CDT 8:52 PM CDT
Astronomical Twilight 4:06 AM CDT 9:28 PM CDT
Moon 4:26 AM CDT (7/6) 6:35 PM CDT (7/6)
Length of Visible Light 15h 01m
Length of Day
14h 06m
Waning Crescent, 2% of the Moon is Illuminated
Jul 6
Waning Crescent
Jul 8
New
Jul 15
First Quarter
Jul 22
Full
Jul 29
Last Quarter

Hourly Weather History & Observations

Time (CDT) Temp. Heat Index Dew Point Humidity Pressure Visibility Wind Dir Wind Speed Gust Speed Precip Events Conditions
12:53 AM 72.0 °F - 71.1 °F 97% 30.04 in 10.0 mi Calm Calm - N/A   Mostly Cloudy
1:53 AM 72.0 °F - 71.1 °F 97% 30.04 in 10.0 mi Variable 3.5 mph - N/A   Overcast
2:26 AM 71.6 °F - 71.6 °F 100% 30.05 in 10.0 mi SE 3.5 mph - N/A   Overcast
2:39 AM 73.4 °F - 71.6 °F 94% 30.05 in 10.0 mi Calm Calm - N/A   Overcast
2:53 AM 73.0 °F - 71.1 °F 93% 30.04 in 10.0 mi SE 3.5 mph - N/A   Overcast
3:53 AM 73.0 °F - 72.0 °F 96% 30.04 in 10.0 mi ESE 3.5 mph - N/A   Overcast
4:53 AM 73.0 °F - 72.0 °F 96% 30.06 in 10.0 mi Variable 3.5 mph - N/A   Overcast
5:53 AM 73.0 °F - 72.0 °F 96% 30.06 in 10.0 mi ESE 3.5 mph - N/A   Overcast
6:53 AM 73.9 °F - 72.0 °F 93% 30.07 in 10.0 mi Calm Calm - N/A   Overcast
7:53 AM 75.0 °F - 72.0 °F 90% 30.08 in 10.0 mi East 3.5 mph - N/A   Overcast
8:29 AM 75.2 °F - 71.6 °F 89% 30.08 in 10.0 mi East 6.9 mph - N/A   Overcast
8:53 AM 77.0 °F - 73.0 °F 88% 30.07 in 10.0 mi East 4.6 mph - N/A   Overcast
9:53 AM 81.0 °F 86.2 °F 73.9 °F 79% 30.08 in 10.0 mi SSE 5.8 mph - N/A   Overcast
10:12 AM 80.6 °F 85.4 °F 73.4 °F 79% 30.08 in 10.0 mi South 5.8 mph - N/A   Overcast
10:53 AM 81.0 °F 86.2 °F 73.9 °F 79% 30.07 in 10.0 mi South 4.6 mph - 0.00 in   Mostly Cloudy
11:53 AM 81.0 °F 85.2 °F 72.0 °F 74% 30.06 in 10.0 mi Variable 5.8 mph - 0.01 in   Mostly Cloudy
12:50 PM 78.8 °F - 75.2 °F 89% 30.07 in 10.0 mi Calm Calm - 0.03 in   Mostly Cloudy
12:53 PM 79.0 °F - 75.9 °F 90% 30.06 in 7.0 mi Variable 3.5 mph - 0.04 in   Overcast
1:01 PM 78.8 °F - 73.4 °F 83% 30.06 in 1.0 mi Variable 4.6 mph - 0.07 in Rain Heavy Rain
1:06 PM 77.0 °F - 73.4 °F 89% 30.07 in 3.0 mi WSW 4.6 mph - 0.07 in Rain Light Rain
1:22 PM 77.0 °F - 73.4 °F 89% 30.07 in 10.0 mi South 11.5 mph 16.1 mph 0.07 in Rain Light Rain
1:53 PM 75.0 °F - 73.0 °F 94% 30.06 in 5.0 mi South 4.6 mph - 0.10 in Rain Light Rain
2:22 PM 75.2 °F - 73.4 °F 94% 30.07 in 10.0 mi South 5.8 mph - 0.02 in Rain , Thunderstorm Light Thunderstorms and Rain
2:34 PM 75.2 °F - 73.4 °F 94% 30.06 in 10.0 mi SSE 5.8 mph - 0.02 in Rain Light Rain
2:53 PM 75.9 °F - 73.9 °F 94% 30.05 in 10.0 mi SSE 4.6 mph - 0.02 in Rain Light Rain
3:20 PM 75.2 °F - 73.4 °F 94% 30.06 in 6.0 mi SE 3.5 mph - 0.03 in Rain Rain
3:51 PM 75.2 °F - 75.2 °F 100% 30.06 in 10.0 mi SE 5.8 mph - 0.06 in   Overcast
3:53 PM 75.9 °F - 73.9 °F 94% 30.05 in 10.0 mi SSE 5.8 mph - 0.06 in   Mostly Cloudy
4:05 PM 75.2 °F - 73.4 °F 94% 30.06 in 10.0 mi Variable 4.6 mph - N/A   Mostly Cloudy
4:36 PM 75.2 °F - 73.4 °F 94% 30.06 in 10.0 mi Calm Calm - 0.01 in Rain Light Rain
4:50 PM 75.2 °F - 73.4 °F 94% 30.06 in 5.0 mi Variable 3.5 mph - 0.04 in Rain Rain
4:53 PM 75.0 °F - 73.9 °F 96% 30.05 in 4.0 mi Variable 4.6 mph - 0.05 in Rain Rain
5:37 PM 75.2 °F - 73.4 °F 94% 30.04 in 5.0 mi SSE 3.5 mph - 0.06 in Rain Rain
5:53 PM 73.9 °F - 73.0 °F 97% 30.04 in 6.0 mi SSE 5.8 mph - 0.09 in Rain Rain
6:27 PM 73.4 °F - 73.4 °F 100% 30.05 in 10.0 mi South 3.5 mph - 0.01 in   Mostly Cloudy
6:53 PM 73.9 °F - 73.0 °F 97% 30.04 in 10.0 mi South 5.8 mph - 0.01 in   Mostly Cloudy
7:00 PM 73.4 °F - 71.6 °F 94% 30.05 in 10.0 mi South 3.5 mph - N/A   Partly Cloudy
7:53 PM 73.0 °F - 72.0 °F 96% 30.05 in 10.0 mi Calm Calm - N/A   Partly Cloudy
8:49 PM 73.4 °F - 71.6 °F 94% 30.07 in 10.0 mi Calm Calm - N/A   Mostly Cloudy
8:53 PM 73.0 °F - 72.0 °F 96% 30.07 in 10.0 mi Calm Calm - N/A   Scattered Clouds
9:10 PM 73.4 °F - 71.6 °F 94% 30.08 in 10.0 mi Calm Calm - N/A   Mostly Cloudy
9:26 PM 73.4 °F - 71.6 °F 94% 30.09 in 10.0 mi Calm Calm - N/A   Mostly Cloudy
9:53 PM 73.0 °F - 71.1 °F 93% 30.08 in 10.0 mi Calm Calm - N/A   Mostly Cloudy
10:37 PM 71.6 °F - 71.6 °F 100% 30.09 in 4.0 mi Calm Calm - N/A   Overcast
10:53 PM 72.0 °F - 71.1 °F 97% 30.08 in 10.0 mi Calm Calm - N/A   Overcast
11:20 PM 71.6 °F - 69.8 °F 94% 30.09 in 3.0 mi Calm Calm - N/A   Scattered Clouds
11:44 PM 71.6 °F - 69.8 °F 94% 30.09 in 6.0 mi Calm Calm - N/A   Mostly Cloudy
11:53 PM 71.1 °F - 70.0 °F 96% 30.09 in 10.0 mi Calm Calm - N/A   Mostly Cloudy